Time,TemperatureF,DewpointF,PressureIn,WindDirection,WindDirectionDegrees,WindSpeedMPH,WindSpeedGustMPH,Humidity,HourlyPrecipIn,Conditions,Clouds,dailyrainin,SoftwareType,DateUTC
2013-02-17 00:14:00,32.8,21.0,29.79,WNW,291,3.0,7.0,62,0.00,,,0.00,weatherlink.com 1.10,2013-02-17 05:14:00,
2013-02-17 00:29:00,32.6,20.0,29.79,West,277,3.0,10.0,60,0.00,,,0.00,weatherlink.com 1.10,2013-02-17 05:29:00,
2013-02-17 00:44:00,32.4,20.0,29.80,North,352,1.0,8.0,61,0.00,,,0.00,weatherlink.com 1.10,2013-02-17 05:44:00,
2013-02-17 00:59:00,32.1,20.0,29.80,WNW,296,6.0,9.0,61,0.00,,,0.00,weatherlink.com 1.10,2013-02-17 05:59:00,
2013-02-17 01:14:00,31.8,20.0,29.80,WNW,285,4.0,10.0,62,0.00,,,0.00,weatherlink.com 1.10,2013-02-17 06:14:00,
2013-02-17 01:29:00,31.4,20.0,29.80,WNW,283,8.0,10.0,63,0.00,,,0.00,weatherlink.com 1.10,2013-02-17 06:29:00,
2013-02-17 01:44:00,31.0,20.0,29.80,West,281,2.0,10.0,64,0.00,,,0.00,weatherlink.com 1.10,2013-02-17 06:44:00,
2013-02-17 01:59:00,30.7,20.0,29.80,West,280,3.0,13.0,64,0.00,,,0.00,weatherlink.com 1.10,2013-02-17 06:59:00,
2013-02-17 02:14:00,30.4,20.0,29.80,WNW,288,1.0,15.0,65,0.00,,,0.00,weatherlink.com 1.10,2013-02-17 07:14:00,
2013-02-17 02:29:00,30.0,20.0,29.81,WSW,250,0.0,7.0,66,0.00,,,0.00,weatherlink.com 1.10,2013-02-17 07:29:00,
2013-02-17 02:44:00,29.9,20.0,29.81,NNE,18,2.0,10.0,66,0.00,,,0.00,weatherlink.com 1.10,2013-02-17 07:44:00,
2013-02-17 03:00:00,29.6,19.0,29.81,NW,307,0.0,9.0,66,0.00,,,0.00,weatherlink.com 1.10,2013-02-17 08:00:00,
2013-02-17 03:14:00,29.5,19.0,29.81,WSW,240,4.0,11.0,65,0.00,,,0.00,weatherlink.com 1.10,2013-02-17 08:14:00,
2013-02-17 03:30:00,29.3,19.0,29.81,West,280,4.0,8.0,65,0.00,,,0.00,weatherlink.com 1.10,2013-02-17 08:30:00,
2013-02-17 03:44:00,29.2,19.0,29.81,West,270,3.0,10.0,65,0.00,,,0.00,weatherlink.com 1.10,2013-02-17 08:44:00,
2013-02-17 03:59:00,29.1,19.0,29.81,West,264,6.0,8.0,65,0.00,,,0.00,weatherlink.com 1.10,2013-02-17 08:59:00,
2013-02-17 04:15:00,29.0,18.0,29.82,WNW,298,3.0,11.0,64,0.00,,,0.00,weatherlink.com 1.10,2013-02-17 09:15:00,
2013-02-17 04:29:00,28.8,18.0,29.82,WSW,245,0.0,8.0,65,0.00,,,0.00,weatherlink.com 1.10,2013-02-17 09:29:00,
2013-02-17 04:45:00,28.5,18.0,29.82,WNW,284,2.0,8.0,65,0.00,,,0.00,weatherlink.com 1.10,2013-02-17 09:45:00,
2013-02-17 05:00:00,28.3,18.0,29.83,SW,224,3.0,7.0,66,0.00,,,0.00,weatherlink.com 1.10,2013-02-17 10:00:00,
2013-02-17 05:15:00,28.0,18.0,29.83,NNE,19,1.0,8.0,66,0.00,,,0.00,weatherlink.com 1.10,2013-02-17 10:15:00,
2013-02-17 05:30:00,27.8,18.0,29.84,NW,305,4.0,8.0,67,0.00,,,0.00,weatherlink.com 1.10,2013-02-17 10:30:00,
2013-02-17 05:45:00,27.7,18.0,29.84,WNW,295,0.0,11.0,68,0.00,,,0.00,weatherlink.com 1.10,2013-02-17 10:45:00,
2013-02-17 06:00:00,27.3,18.0,29.84,ENE,78,1.0,6.0,67,0.00,,,0.00,weatherlink.com 1.10,2013-02-17 11:00:00,
2013-02-17 06:15:00,27.3,17.0,29.84,WNW,290,3.0,9.0,66,0.00,,,0.00,weatherlink.com 1.10,2013-02-17 11:15:00,
2013-02-17 06:30:00,27.0,17.0,29.85,WNW,300,3.0,8.0,67,0.00,,,0.00,weatherlink.com 1.10,2013-02-17 11:30:00,
2013-02-17 06:45:00,26.8,17.0,29.85,WSW,238,0.0,6.0,66,0.00,,,0.00,weatherlink.com 1.10,2013-02-17 11:45:00,
2013-02-17 07:00:00,26.5,16.0,29.86,WNW,295,2.0,7.0,66,0.00,,,0.00,weatherlink.com 1.10,2013-02-17 12:00:00,
2013-02-17 07:15:00,26.7,16.0,29.86,WNW,292,6.0,7.0,63,0.00,,,0.00,weatherlink.com 1.10,2013-02-17 12:15:00,
2013-02-17 07:30:00,27.3,16.0,29.87,West,267,2.0,10.0,62,0.00,,,0.00,weatherlink.com 1.10,2013-02-17 12:30:00,
2013-02-17 07:45:00,28.0,16.0,29.87,WSW,252,2.0,6.0,61,0.00,,,0.00,weatherlink.com 1.10,2013-02-17 12:45:00,
2013-02-17 08:00:00,28.3,16.0,29.88,West,264,4.0,16.0,60,0.00,,,0.00,weatherlink.com 1.10,2013-02-17 13:00:00,
2013-02-17 08:15:00,28.9,16.0,29.88,WSW,253,3.0,11.0,58,0.00,,,0.00,weatherlink.com 1.10,2013-02-17 13:15:00,
2013-02-17 08:30:00,29.4,16.0,29.89,WNW,301,4.0,13.0,58,0.00,,,0.00,weatherlink.com 1.10,2013-02-17 13:30:00,
2013-02-17 08:45:00,29.7,15.0,29.89,NNW,340,8.0,12.0,55,0.00,,,0.00,weatherlink.com 1.10,2013-02-17 13:45:00,
2013-02-17 09:00:00,30.3,15.0,29.89,SW,236,8.0,16.0,53,0.00,,,0.00,weatherlink.com 1.10,2013-02-17 14:00:00,
2013-02-17 09:15:00,30.0,15.0,29.89,West,265,2.0,17.0,53,0.00,,,0.00,weatherlink.com 1.10,2013-02-17 14:15:00,
2013-02-17 09:30:00,30.6,15.0,29.90,West,273,2.0,13.0,52,0.00,,,0.00,weatherlink.com 1.10,2013-02-17 14:30:00,
2013-02-17 09:45:00,31.2,16.0,29.90,WNW,283,8.0,15.0,53,0.00,,,0.00,weatherlink.com 1.10,2013-02-17 14:45:00,
2013-02-17 10:00:00,31.4,16.0,29.90,WNW,292,6.0,13.0,53,0.00,,,0.00,weatherlink.com 1.10,2013-02-17 15:00:00,
2013-02-17 10:15:00,31.4,13.0,29.91,WSW,240,6.0,14.0,47,0.00,,,0.00,weatherlink.com 1.10,2013-02-17 15:15:00,
2013-02-17 10:30:00,31.0,12.0,29.91,West,274,5.0,14.0,46,0.00,,,0.00,weatherlink.com 1.10,2013-02-17 15:30:00,
2013-02-17 10:45:00,31.3,13.0,29.91,West,278,1.0,15.0,47,0.00,,,0.00,weatherlink.com 1.10,2013-02-17 15:45:00,
2013-02-17 11:01:00,31.7,13.0,29.91,West,269,3.0,16.0,47,0.00,,,0.00,weatherlink.com 1.10,2013-02-17 16:01:00,
2013-02-17 11:16:00,32.0,13.0,29.93,WNW,291,6.0,14.0,45,0.00,,,0.00,weatherlink.com 1.10,2013-02-17 16:16:00,
2013-02-17 11:31:00,32.1,13.0,29.93,WNW,295,6.0,17.0,46,0.00,,,0.00,weatherlink.com 1.10,2013-02-17 16:31:00,
2013-02-17 11:46:00,31.8,14.0,29.93,WNW,287,6.0,14.0,49,0.00,,,0.00,weatherlink.com 1.10,2013-02-17 16:46:00,
2013-02-17 12:01:00,32.9,14.0,29.92,WSW,257,1.0,16.0,45,0.00,,,0.00,weatherlink.com 1.10,2013-02-17 17:01:00,
2013-02-17 12:16:00,32.3,12.0,29.93,WNW,282,6.0,16.0,44,0.00,,,0.00,weatherlink.com 1.10,2013-02-17 17:16:00,
2013-02-17 12:31:00,32.4,14.0,29.93,West,281,2.0,13.0,47,0.00,,,0.00,weatherlink.com 1.10,2013-02-17 17:31:00,
2013-02-17 12:46:00,32.4,13.0,29.93,WNW,284,7.0,14.0,44,0.00,,,0.00,weatherlink.com 1.10,2013-02-17 17:46:00,
2013-02-17 13:01:00,31.7,11.0,29.93,WNW,287,1.0,13.0,43,0.00,,,0.00,weatherlink.com 1.10,2013-02-17 18:01:00,
2013-02-17 13:16:00,31.7,13.0,29.93,WNW,297,5.0,14.0,46,0.00,,,0.00,weatherlink.com 1.10,2013-02-17 18:16:00,
2013-02-17 13:31:00,31.4,13.0,29.93,NW,314,5.0,13.0,47,0.00,,,0.00,weatherlink.com 1.10,2013-02-17 18:31:00,
2013-02-17 13:46:00,31.6,14.0,29.93,West,280,2.0,11.0,48,0.00,,,0.00,weatherlink.com 1.10,2013-02-17 18:46:00,
2013-02-17 14:01:00,31.9,14.0,29.94,SW,232,6.0,10.0,48,0.00,,,0.00,weatherlink.com 1.10,2013-02-17 19:01:00,
2013-02-17 14:16:00,31.7,13.0,29.94,NW,323,3.0,16.0,47,0.00,,,0.00,weatherlink.com 1.10,2013-02-17 19:16:00,
2013-02-17 14:31:00,30.9,12.0,29.94,WNW,285,3.0,13.0,45,0.00,,,0.00,weatherlink.com 1.10,2013-02-17 19:31:00,
2013-02-17 14:46:00,32.7,11.0,29.93,WSW,256,4.0,14.0,40,0.00,,,0.00,weatherlink.com 1.10,2013-02-17 19:46:00,
2013-02-17 15:01:00,32.7,10.0,29.94,West,280,9.0,13.0,38,0.00,,,0.00,weatherlink.com 1.10,2013-02-17 20:01:00,
2013-02-17 15:16:00,31.3,10.0,29.94,WSW,256,4.0,15.0,41,0.00,,,0.00,weatherlink.com 1.10,2013-02-17 20:16:00,
2013-02-17 15:31:00,32.7,12.0,29.94,NW,323,3.0,15.0,42,0.00,,,0.00,weatherlink.com 1.10,2013-02-17 20:31:00,
2013-02-17 15:46:00,30.9,8.0,29.96,WNW,300,3.0,17.0,39,0.00,,,0.00,weatherlink.com 1.10,2013-02-17 20:46:00,
2013-02-17 16:04:00,30.7,9.0,29.96,WNW,289,1.0,16.0,40,0.00,,,0.00,weatherlink.com 1.10,2013-02-17 21:04:00,
2013-02-17 16:16:00,31.6,10.0,29.97,West,274,4.0,13.0,40,0.00,,,0.00,weatherlink.com 1.10,2013-02-17 21:16:00,
2013-02-17 16:31:00,31.3,9.0,29.98,NW,307,4.0,16.0,40,0.00,,,0.00,weatherlink.com 1.10,2013-02-17 21:31:00,
2013-02-17 16:46:00,30.4,9.0,29.98,WNW,285,4.0,10.0,41,0.00,,,0.00,weatherlink.com 1.10,2013-02-17 21:46:00,
2013-02-17 17:01:00,29.9,9.0,29.99,NE,44,7.0,14.0,42,0.00,,,0.00,weatherlink.com 1.10,2013-02-17 22:01:00,
2013-02-17 17:16:00,29.7,9.0,30.00,WSW,256,5.0,18.0,42,0.00,,,0.00,weatherlink.com 1.10,2013-02-17 22:16:00,
2013-02-17 17:31:00,29.4,9.0,30.01,WSW,242,4.0,11.0,42,0.00,,,0.00,weatherlink.com 1.10,2013-02-17 22:31:00,
2013-02-17 17:47:00,29.1,8.0,30.02,SW,233,3.0,13.0,41,0.00,,,0.00,weatherlink.com 1.10,2013-02-17 22:47:00,
2013-02-17 18:01:00,28.9,8.0,30.03,West,280,1.0,18.0,41,0.00,,,0.00,weatherlink.com 1.10,2013-02-17 23:01:00,
2013-02-17 18:17:00,28.3,8.0,30.03,North,8,1.0,9.0,43,0.00,,,0.00,weatherlink.com 1.10,2013-02-17 23:17:00,
2013-02-17 18:32:00,28.0,7.0,30.04,NW,304,1.0,10.0,42,0.00,,,0.00,weatherlink.com 1.10,2013-02-17 23:32:00,
2013-02-17 18:46:00,27.8,8.0,30.05,SSE,153,9.0,12.0,43,0.00,,,0.00,weatherlink.com 1.10,2013-02-17 23:46:00,
2013-02-17 19:02:00,27.7,7.0,30.06,WSW,248,3.0,18.0,42,0.00,,,0.00,weatherlink.com 1.10,2013-02-18 00:02:00,
2013-02-17 19:16:00,27.4,9.0,30.07,West,259,4.0,14.0,45,0.00,,,0.00,weatherlink.com 1.10,2013-02-18 00:16:00,
2013-02-17 19:32:00,27.3,9.0,30.08,WNW,285,1.0,11.0,46,0.00,,,0.00,weatherlink.com 1.10,2013-02-18 00:32:00,
2013-02-17 19:47:00,27.1,8.0,30.09,West,276,6.0,10.0,45,0.00,,,0.00,weatherlink.com 1.10,2013-02-18 00:47:00,
2013-02-17 20:02:00,26.9,9.0,30.09,NW,308,3.0,10.0,46,0.00,,,0.00,weatherlink.com 1.10,2013-02-18 01:02:00,
2013-02-17 20:17:00,27.2,8.0,30.09,WSW,253,1.0,18.0,45,0.00,,,0.00,weatherlink.com 1.10,2013-02-18 01:17:00,
2013-02-17 20:32:00,27.2,9.0,30.10,NW,311,6.0,15.0,46,0.00,,,0.00,weatherlink.com 1.10,2013-02-18 01:32:00,
2013-02-17 20:47:00,26.9,9.0,30.12,WNW,301,7.0,18.0,46,0.00,,,0.00,weatherlink.com 1.10,2013-02-18 01:47:00,
2013-02-17 21:02:00,26.9,9.0,30.12,West,262,1.0,16.0,47,0.00,,,0.00,weatherlink.com 1.10,2013-02-18 02:02:00,
2013-02-17 21:17:00,26.7,9.0,30.13,West,269,2.0,14.0,48,0.00,,,0.00,weatherlink.com 1.10,2013-02-18 02:17:00,
2013-02-17 21:32:00,26.3,10.0,30.14,NNE,18,2.0,8.0,51,0.00,,,0.00,weatherlink.com 1.10,2013-02-18 02:32:00,
2013-02-17 21:47:00,26.3,10.0,30.14,West,264,2.0,11.0,50,0.00,,,0.00,weatherlink.com 1.10,2013-02-18 02:47:00,
2013-02-17 22:02:00,26.0,10.0,30.15,West,267,3.0,10.0,51,0.00,,,0.00,weatherlink.com 1.10,2013-02-18 03:02:00,
2013-02-17 22:17:00,25.9,10.0,30.15,West,274,2.0,11.0,51,0.00,,,0.00,weatherlink.com 1.10,2013-02-18 03:17:00,
2013-02-17 22:32:00,25.5,10.0,30.16,WNW,289,5.0,10.0,53,0.00,,,0.00,weatherlink.com 1.10,2013-02-18 03:32:00,
2013-02-17 22:47:00,25.6,10.0,30.16,West,270,0.0,8.0,53,0.00,,,0.00,weatherlink.com 1.10,2013-02-18 03:47:00,
2013-02-17 23:02:00,25.3,10.0,30.17,WNW,288,1.0,7.0,53,0.00,,,0.00,weatherlink.com 1.10,2013-02-18 04:02:00,
2013-02-17 23:17:00,25.4,9.0,30.17,NW,305,0.0,12.0,51,0.00,,,0.00,weatherlink.com 1.10,2013-02-18 04:17:00,
2013-02-17 23:33:00,25.5,8.0,30.18,WNW,297,3.0,16.0,48,0.00,,,0.00,weatherlink.com 1.10,2013-02-18 04:33:00,
2013-02-17 23:47:00,25.3,8.0,30.18,WSW,252,10.0,11.0,49,0.00,,,0.00,weatherlink.com 1.10,2013-02-18 04:47:00,